Location: アルンシュタイン
(50.0000°N, 10.0000°E)
Time: 20:16:35
(UTC+02:00)

Explorer 11/Cluster Stage 4 - Pass Details

Date: 15 September 2024
Orbit: 464 x 1207 km, 28.8° (Epoch: 11 October)

Event Time Altitude Azimuth Distance (km) Brightness Sun altitude
Rises 10:55:25 0° 238° (WSW) 3,959 10.1 34.3°
Reaches altitude 10° 11:00:06 10° 213° (SSW) 3,093 9.9 34.8°
Maximum altitude 11:03:14 13° 189° (S) 2,915 10.1 35.1°
Drops below altitude 10° 11:06:24 10° 165° (SSE) 3,143 10.7 35.5°
Sets 11:11:16 0° 140° (SE) 4,084 11.3 36.0°
